• Processing (Info)

  • MPEC 2020-M91 : 2014 OW393

    The following Minor Planet Electronic Circular may be linked-to from your own Web pages, but must not otherwise be redistributed electronically.

    A form allowing access to any MPEC is at the bottom of this page.


    Read MPEC 2020-M90 Read MPEC 2020-M92


    M.P.E.C. 2020-M91                                 Issued 2020 June 23, 17:23 UT
    
         The Minor Planet Electronic Circulars contain information on unusual
             minor planets and routine data on comets.  They are published
        on behalf of Division F of the International Astronomical Union by the
              Minor Planet Center, Smithsonian Astrophysical Observatory,
                              Cambridge, MA 02138, U.S.A.
    
                 Prepared using the Tamkin Foundation Computer Network
    
                                  MPC@CFA.HARVARD.EDU
                URL https://www.minorplanetcenter.net/    ISSN 1523-6714
    
                                   2014 OW393                                
    
    
    Additional Observations:
         K14Od3W  C2013 07 08.44565 19 48 54.990-19 53 32.10         22.4 wLEM091F51
         K14Od3W  C2013 07 08.45963 19 48 54.831-19 53 32.22         22.3 wLEM091F51
         K14Od3W  C2013 07 08.47299 19 48 54.704-19 53 32.14         22.2 wLEM091F51
         K14Od3W OC2014 08 20.48007320 01 50.17 -16 51 52.8                VEM091568
         K14Od3W OC2014 08 20.48140820 01 50.16 -16 51 52.8                VEM091568
         K14Od3W OC2014 08 20.48266120 01 50.15 -16 51 52.9                VEM091568
    
    Observer details:
    568 Mauna Kea.  Observer .  Measurer S. Deen.
    F51 Pan-STARRS 1, Haleakala.  Observers B. Gibson, T. Goggia, N. Primak, A.
        Schultz, M. Willman.  Measurers K. Chambers, S. Chastel, Y.-T. Chen, L.
        Denneau, H. Flewelling, M. Holman, M. Huber, R. Jedicke, M. Lackner, E.
        Lilly, H.-W. Lin, E. Magnier, M. Micheli, M. Payne, P. Veres, R.
        Wainscoat, C. Waters, R. Weryk.  1.8-m Ritchey-Chretien + CCD.
    
    Orbital elements:
    2014 OW393
    Epoch 2020 May 31.0 TT = JDT 2459000.5                  Pike
    M  18.69677              (2000.0)            P               Q
    n   0.00350121     Peri.  306.14783     -0.46993324     +0.81070189
    a  42.9527484      Node   292.17521     -0.63904098     -0.58534907
    e   0.6634499      Incl.   22.15219     -0.60892478     -0.01135399
    P 282              H    9.7           G   0.15           U   2
    Residuals in seconds of arc
    130708 F51  0.1-  0.0     140803 F51  0.1+  0.3-    140820 568  0.2+  0.0
    130708 F51  0.1-  0.1-    140803 F51  0.1-  0.0     140920 F51  0.1-  0.1-
    130708 F51  0.2+  0.1+    140803 F51  0.0   0.0     140920 F51  0.0   0.2+
    140725 F51  0.1-  0.0     140803 F51  0.0   0.1-    140920 F51  0.0   0.1-
    140725 F51  0.0   0.1+    140820 568  0.2+  0.1+
    140725 F51  0.1+  0.1+    140820 568  0.2+  0.1+
    
    Ephemeris:
    2014 OW393               a,e,i = 42.95, 0.66, 22                 q = 14.4558
    Date    TT    R. A. (2000) Decl.     Delta      r    Elong.  Phase     V
    2020 05 24    21 35 34.8 -01 46 05  23.0181 23.1677    97.2     2.5    23.6
    ...
    2020 06 08    21 35 14.8 -01 37 00  22.8144 23.2025   111.3     2.3    23.6
    ...
    2020 06 16    21 34 50.3 -01 33 34  22.7144 23.2211   118.8     2.2    23.6
    ...
    2020 06 22    21 34 25.8 -01 31 41  22.6452 23.2351   124.4     2.1    23.5
    2020 06 23    21 34 21.3 -01 31 26  22.6342 23.2374   125.4     2.0    23.5
    2020 06 24    21 34 16.6 -01 31 12  22.6233 23.2397   126.3     2.0    23.5
    ...
    2020 06 30    21 33 46.0 -01 30 06  22.5622 23.2537   131.9     1.9    23.5
    ...
    2020 07 08    21 32 58.7 -01 29 33  22.4916 23.2722   139.3     1.6    23.5
    ...
    2020 07 23    21 31 14.0 -01 31 12  22.3985 23.3071   152.8     1.1    23.5
    
    M. P. C. Staff               (C) Copyright 2020 MPC           M.P.E.C. 2020-M91
    


    Read MPEC 2020-M90 Read MPEC 2020-M92


    MPEC number:

    Enter an MPEC number in one of the following forms:

    • 1997-B01 (the full form)
    • J97B01 (the packed version of the full form)
    • B01 (the abbreviated form)